12/07/2024 02:30:00,0.435
12/07/2024 02:45:00,0.435
12/07/2024 03:00:00,0.435
12/07/2024 03:15:00,0.435
12/07/2024 03:30:00,0.435
12/07/2024 03:45:00,0.435
12/07/2024 04:00:00,0.434
12/07/2024 04:15:00,0.433
12/07/2024 04:30:00,0.433
12/07/2024 04:45:00,0.433
12/07/2024 05:00:00,0.433
12/07/2024 05:15:00,0.433
12/07/2024 05:30:00,0.433
12/07/2024 05:45:00,0.432
12/07/2024 06:00:00,0.432
12/07/2024 06:15:00,0.432
12/07/2024 06:30:00,0.432
12/07/2024 06:45:00,0.432
12/07/2024 07:00:00,0.432
12/07/2024 07:15:00,0.432
12/07/2024 07:30:00,0.432
12/07/2024 07:45:00,0.431
12/07/2024 08:00:00,0.431
12/07/2024 08:15:00,0.431
12/07/2024 08:30:00,0.43
12/07/2024 08:45:00,0.43
12/07/2024 09:00:00,0.43
12/07/2024 09:15:00,0.43
12/07/2024 09:30:00,0.43
12/07/2024 09:45:00,0.43
12/07/2024 10:00:00,0.429
12/07/2024 10:15:00,0.429
12/07/2024 10:30:00,0.429
12/07/2024 10:45:00,0.429
12/07/2024 11:00:00,0.429
12/07/2024 11:15:00,0.429
12/07/2024 11:30:00,0.429
12/07/2024 11:45:00,0.429
12/07/2024 12:00:00,0.429
12/07/2024 12:15:00,0.429
12/07/2024 12:30:00,0.428
12/07/2024 12:45:00,0.428
12/07/2024 13:00:00,0.428
12/07/2024 13:15:00,0.428
12/07/2024 13:30:00,0.427
12/07/2024 13:45:00,0.427
12/07/2024 14:00:00,0.427
12/07/2024 14:15:00,0.427
12/07/2024 14:30:00,0.427
12/07/2024 14:45:00,0.427
12/07/2024 15:00:00,0.427
12/07/2024 15:15:00,0.427
12/07/2024 15:30:00,0.427
12/07/2024 15:45:00,0.427
12/07/2024 16:00:00,0.427
12/07/2024 16:15:00,0.427
12/07/2024 16:30:00,0.427
12/07/2024 16:45:00,0.425
12/07/2024 17:00:00,0.425
12/07/2024 17:15:00,0.425
12/07/2024 17:30:00,0.425
12/07/2024 17:45:00,0.425
12/07/2024 18:00:00,0.424
12/07/2024 18:15:00,0.424
12/07/2024 18:30:00,0.424
12/07/2024 18:45:00,0.424
12/07/2024 19:00:00,0.424
12/07/2024 19:15:00,0.424
12/07/2024 19:30:00,0.424
12/07/2024 19:45:00,0.424
12/07/2024 20:00:00,0.424
12/07/2024 20:15:00,0.424
12/07/2024 20:30:00,0.424
12/07/2024 20:45:00,0.424
12/07/2024 21:00:00,0.424
12/07/2024 21:15:00,0.424
12/07/2024 21:30:00,0.424
12/07/2024 21:45:00,0.424
12/07/2024 22:00:00,0.424
12/07/2024 22:15:00,0.423
12/07/2024 22:30:00,0.423
12/07/2024 22:45:00,0.423
12/07/2024 23:00:00,0.423
12/07/2024 23:15:00,0.423
12/07/2024 23:30:00,0.423
12/07/2024 23:45:00,0.423
13/07/2024 00:00:00,0.422
13/07/2024 00:15:00,0.422
13/07/2024 00:30:00,0.422
13/07/2024 00:45:00,0.422
13/07/2024 01:00:00,0.422
13/07/2024 01:15:00,0.422
13/07/2024 01:30:00,0.422
13/07/2024 01:45:00,0.422
13/07/2024 02:00:00,0.422
13/07/2024 02:15:00,0.422
13/07/2024 02:30:00,0.422
13/07/2024 02:45:00,0.422
13/07/2024 03:00:00,0.422
13/07/2024 03:15:00,0.422
13/07/2024 03:30:00,0.422
13/07/2024 03:45:00,0.422
13/07/2024 04:00:00,0.422
13/07/2024 04:15:00,0.422
13/07/2024 04:30:00,0.422
13/07/2024 04:45:00,0.422
13/07/2024 05:00:00,0.421
13/07/2024 05:15:00,0.421
13/07/2024 05:30:00,0.421
13/07/2024 05:45:00,0.421
13/07/2024 06:00:00,0.421
13/07/2024 06:15:00,0.421
13/07/2024 06:30:00,0.421
13/07/2024 06:45:00,0.421
13/07/2024 07:00:00,0.421
13/07/2024 07:15:00,0.421
13/07/2024 07:30:00,0.421
13/07/2024 07:45:00,0.421
13/07/2024 08:00:00,0.421
13/07/2024 08:15:00,0.421
13/07/2024 08:30:00,0.421
13/07/2024 08:45:00,0.421
13/07/2024 09:00:00,0.421
13/07/2024 09:15:00,0.421
13/07/2024 09:30:00,0.421
13/07/2024 09:45:00,0.421
13/07/2024 10:00:00,0.42
13/07/2024 10:15:00,0.42
13/07/2024 10:30:00,0.42
13/07/2024 10:45:00,0.42
13/07/2024 11:00:00,0.419
13/07/2024 11:15:00,0.419
13/07/2024 11:30:00,0.419
13/07/2024 11:45:00,0.419
13/07/2024 12:00:00,0.419
13/07/2024 12:15:00,0.419
13/07/2024 12:30:00,0.419
13/07/2024 12:45:00,0.419
13/07/2024 13:00:00,0.419
13/07/2024 13:15:00,0.419
13/07/2024 13:30:00,0.419
13/07/2024 13:45:00,0.419
13/07/2024 14:00:00,0.419
13/07/2024 14:15:00,0.419
13/07/2024 14:30:00,0.419
13/07/2024 14:45:00,0.419
13/07/2024 15:00:00,0.418
13/07/2024 15:15:00,0.418
13/07/2024 15:30:00,0.418
13/07/2024 15:45:00,0.418
13/07/2024 16:00:00,0.418
13/07/2024 16:15:00,0.418
13/07/2024 16:30:00,0.418
13/07/2024 16:45:00,0.417
13/07/2024 17:00:00,0.417
13/07/2024 17:15:00,0.417
13/07/2024 17:30:00,0.417
13/07/2024 17:45:00,0.417
13/07/2024 18:00:00,0.417
13/07/2024 18:15:00,0.417
13/07/2024 18:30:00,0.417
13/07/2024 18:45:00,0.417
13/07/2024 19:00:00,0.417
13/07/2024 19:15:00,0.417
13/07/2024 19:30:00,0.417
13/07/2024 19:45:00,0.417
13/07/2024 20:00:00,0.417
13/07/2024 20:15:00,0.417
13/07/2024 20:30:00,0.417
13/07/2024 20:45:00,0.417
13/07/2024 21:00:00,0.417
13/07/2024 21:15:00,0.417
13/07/2024 21:30:00,0.417
13/07/2024 21:45:00,0.417
13/07/2024 22:00:00,0.417
13/07/2024 22:15:00,0.417
13/07/2024 22:30:00,0.417
13/07/2024 22:45:00,0.417
13/07/2024 23:00:00,0.417
13/07/2024 23:15:00,0.417
13/07/2024 23:30:00,0.417
13/07/2024 23:45:00,0.417
14/07/2024 00:00:00,0.417
14/07/2024 00:15:00,0.417
14/07/2024 00:30:00,0.417
14/07/2024 00:45:00,0.417
14/07/2024 01:00:00,0.417
14/07/2024 01:15:00,0.417
14/07/2024 01:30:00,0.417
14/07/2024 01:45:00,0.417
14/07/2024 02:00:00,0.417
14/07/2024 02:15:00,0.417
14/07/2024 02:30:00,0.417
14/07/2024 02:45:00,0.417
14/07/2024 03:00:00,0.417
14/07/2024 03:15:00,0.417
14/07/2024 03:30:00,0.417
14/07/2024 03:45:00,0.417
14/07/2024 04:00:00,0.417
14/07/2024 04:15:00,0.417
14/07/2024 04:30:00,0.417
14/07/2024 04:45:00,0.417
14/07/2024 05:00:00,0.417
14/07/2024 05:15:00,0.417
14/07/2024 05:30:00,0.417
14/07/2024 05:45:00,0.417
14/07/2024 06:00:00,0.417
14/07/2024 06:15:00,0.417
14/07/2024 06:30:00,0.417
14/07/2024 06:45:00,0.417
14/07/2024 07:00:00,0.417
14/07/2024 07:15:00,0.417
14/07/2024 07:30:00,0.417
14/07/2024 07:45:00,0.417
14/07/2024 08:00:00,0.417
14/07/2024 08:15:00,0.417
14/07/2024 08:30:00,0.417
14/07/2024 08:45:00,0.417
14/07/2024 09:00:00,0.417
14/07/2024 09:15:00,0.417
14/07/2024 09:30:00,0.417
14/07/2024 09:45:00,0.417
14/07/2024 10:00:00,0.417
14/07/2024 10:15:00,0.417
14/07/2024 10:30:00,0.417
14/07/2024 10:45:00,0.417
14/07/2024 11:00:00,0.417
14/07/2024 11:15:00,0.417
14/07/2024 11:30:00,0.417
14/07/2024 11:45:00,0.417
14/07/2024 12:00:00,0.417
14/07/2024 12:15:00,0.417
14/07/2024 12:30:00,0.417
14/07/2024 12:45:00,0.417
14/07/2024 13:00:00,0.417
14/07/2024 13:15:00,0.417
14/07/2024 13:30:00,0.417
14/07/2024 13:45:00,0.417
14/07/2024 14:00:00,0.417
14/07/2024 14:15:00,0.417
14/07/2024 14:30:00,0.417
14/07/2024 14:45:00,0.417
14/07/2024 15:00:00,0.417
14/07/2024 15:15:00,0.417
14/07/2024 15:30:00,0.417
14/07/2024 15:45:00,0.417
14/07/2024 16:00:00,0.417
14/07/2024 16:15:00,0.417
14/07/2024 16:30:00,0.417
14/07/2024 16:45:00,0.417
14/07/2024 17:00:00,0.417
14/07/2024 17:15:00,0.417
14/07/2024 17:30:00,0.417
14/07/2024 17:45:00,0.417
14/07/2024 18:00:00,0.417
14/07/2024 18:15:00,0.416
14/07/2024 18:30:00,0.416
14/07/2024 18:45:00,0.416
14/07/2024 19:00:00,0.416
14/07/2024 19:15:00,0.416
14/07/2024 19:30:00,0.416
14/07/2024 19:45:00,0.416
14/07/2024 20:00:00,0.416
14/07/2024 20:15:00,0.416
14/07/2024 20:30:00,0.416
14/07/2024 20:45:00,0.416
14/07/2024 21:00:00,0.416
14/07/2024 21:15:00,0.416
14/07/2024 21:30:00,0.416
14/07/2024 21:45:00,0.416
14/07/2024 22:00:00,0.416
14/07/2024 22:15:00,0.416
14/07/2024 22:30:00,0.416
14/07/2024 22:45:00,0.416
14/07/2024 23:00:00,0.416
14/07/2024 23:15:00,0.416
14/07/2024 23:30:00,0.416
14/07/2024 23:45:00,0.416
15/07/2024 00:00:00,0.416
15/07/2024 00:15:00,0.416
15/07/2024 00:30:00,0.416
15/07/2024 00:45:00,0.416
15/07/2024 01:00:00,0.416
15/07/2024 01:15:00,0.416
15/07/2024 01:30:00,0.416
15/07/2024 01:45:00,0.416
15/07/2024 02:00:00,0.414
15/07/2024 02:15:00,0.414
15/07/2024 02:30:00,0.414
15/07/2024 02:45:00,0.414
15/07/2024 03:00:00,0.414
15/07/2024 03:15:00,0.414
15/07/2024 03:30:00,0.414
15/07/2024 03:45:00,0.414
15/07/2024 04:00:00,0.414
15/07/2024 04:15:00,0.414
15/07/2024 04:30:00,0.414
15/07/2024 04:45:00,0.414
15/07/2024 05:00:00,0.414
15/07/2024 05:15:00,0.414
15/07/2024 05:30:00,0.413
15/07/2024 05:45:00,0.413
15/07/2024 06:00:00,0.413
15/07/2024 06:15:00,0.413
15/07/2024 06:30:00,0.413
15/07/2024 06:45:00,0.413
15/07/2024 07:00:00,0.413
15/07/2024 07:15:00,0.413
15/07/2024 07:30:00,0.413
15/07/2024 07:45:00,0.413
15/07/2024 08:00:00,0.413
15/07/2024 08:15:00,0.413
15/07/2024 08:30:00,0.413
15/07/2024 08:45:00,0.413
15/07/2024 09:00:00,0.413
15/07/2024 09:15:00,0.413
15/07/2024 09:30:00,0.413
15/07/2024 09:45:00,0.413
15/07/2024 10:00:00,0.413
15/07/2024 10:15:00,0.413
15/07/2024 10:30:00,0.413
15/07/2024 10:45:00,0.412
15/07/2024 11:00:00,0.412
15/07/2024 11:15:00,0.412
15/07/2024 11:30:00,0.412
15/07/2024 11:45:00,0.412
15/07/2024 12:00:00,0.412
15/07/2024 12:15:00,0.412
15/07/2024 12:30:00,0.412
15/07/2024 12:45:00,0.412
15/07/2024 13:00:00,0.412
15/07/2024 13:15:00,0.412
15/07/2024 13:30:00,0.412
15/07/2024 13:45:00,0.412
15/07/2024 14:00:00,0.412
15/07/2024 14:15:00,0.412
15/07/2024 14:30:00,0.412
15/07/2024 14:45:00,0.412
15/07/2024 15:00:00,0.412
15/07/2024 15:15:00,0.412
15/07/2024 15:30:00,0.412
15/07/2024 15:45:00,0.412
15/07/2024 16:00:00,0.412
15/07/2024 16:15:00,0.412
15/07/2024 16:30:00,0.412
15/07/2024 16:45:00,0.411
15/07/2024 17:00:00,0.411
15/07/2024 17:15:00,0.411
15/07/2024 17:30:00,0.411
15/07/2024 17:45:00,0.411
15/07/2024 18:00:00,0.411
15/07/2024 18:15:00,0.411
15/07/2024 18:30:00,0.411
15/07/2024 18:45:00,0.411
15/07/2024 19:00:00,0.411
15/07/2024 19:15:00,0.411
15/07/2024 19:30:00,0.411
15/07/2024 19:45:00,0.411
15/07/2024 20:00:00,0.411
15/07/2024 20:15:00,0.411
15/07/2024 20:30:00,0.41
15/07/2024 20:45:00,0.41
15/07/2024 21:00:00,0.41
15/07/2024 21:15:00,0.41
15/07/2024 21:30:00,0.41
15/07/2024 21:45:00,0.41
15/07/2024 22:00:00,0.41
15/07/2024 22:15:00,0.41
15/07/2024 22:30:00,0.41
15/07/2024 22:45:00,0.41
15/07/2024 23:00:00,0.41
15/07/2024 23:15:00,0.41
15/07/2024 23:30:00,0.41
15/07/2024 23:45:00,0.41
16/07/2024 00:00:00,0.41
16/07/2024 00:15:00,0.41
16/07/2024 00:30:00,0.41
16/07/2024 00:45:00,0.41
16/07/2024 01:00:00,0.41
16/07/2024 01:15:00,0.41
16/07/2024 01:30:00,0.41
16/07/2024 01:45:00,0.41
16/07/2024 02:00:00,0.41
16/07/2024 02:15:00,0.41
16/07/2024 02:30:00,0.41
16/07/2024 02:45:00,0.41
16/07/2024 03:00:00,0.409
16/07/2024 03:15:00,0.409
16/07/2024 03:30:00,0.409
16/07/2024 03:45:00,0.409
16/07/2024 04:00:00,0.409
16/07/2024 04:15:00,0.409
16/07/2024 04:30:00,0.409
16/07/2024 04:45:00,0.409
16/07/2024 05:00:00,0.409
16/07/2024 05:15:00,0.409
16/07/2024 05:30:00,0.409
16/07/2024 05:45:00,0.409
16/07/2024 06:00:00,0.409
16/07/2024 06:15:00,0.409
16/07/2024 06:30:00,0.409
16/07/2024 06:45:00,0.409
16/07/2024 07:00:00,0.409
16/07/2024 07:15:00,0.409
16/07/2024 07:30:00,0.409
16/07/2024 07:45:00,0.409
16/07/2024 08:00:00,0.409
16/07/2024 08:15:00,0.409
16/07/2024 08:30:00,0.41
16/07/2024 08:45:00,0.41
16/07/2024 09:00:00,0.41
16/07/2024 09:15:00,0.41
16/07/2024 09:30:00,0.41
16/07/2024 09:45:00,0.41
16/07/2024 10:00:00,0.41
16/07/2024 10:15:00,0.41
16/07/2024 10:30:00,0.41
16/07/2024 10:45:00,0.41
16/07/2024 11:00:00,0.41
16/07/2024 11:15:00,0.41
16/07/2024 11:30:00,0.41
16/07/2024 11:45:00,0.41
16/07/2024 12:00:00,0.41
16/07/2024 12:15:00,0.411
16/07/2024 12:30:00,0.411
16/07/2024 12:45:00,0.411
16/07/2024 13:00:00,0.411
16/07/2024 13:15:00,0.411
16/07/2024 13:30:00,0.412
16/07/2024 13:45:00,0.412
16/07/2024 14:00:00,0.412
16/07/2024 14:15:00,0.412
16/07/2024 14:30:00,0.412
16/07/2024 14:45:00,0.412
16/07/2024 15:00:00,0.412
16/07/2024 15:15:00,0.412
16/07/2024 15:30:00,0.412
16/07/2024 15:45:00,0.413
16/07/2024 16:00:00,0.413
16/07/2024 16:15:00,0.413
16/07/2024 16:30:00,0.413
16/07/2024 16:45:00,0.413
16/07/2024 17:00:00,0.413
16/07/2024 17:15:00,0.414
16/07/2024 17:30:00,0.414
16/07/2024 17:45:00,0.416
16/07/2024 18:00:00,0.416
16/07/2024 18:15:00,0.416
16/07/2024 18:30:00,0.417
16/07/2024 18:45:00,0.417
16/07/2024 19:00:00,0.417
16/07/2024 19:15:00,0.417
16/07/2024 19:30:00,0.418
16/07/2024 19:45:00,0.419
16/07/2024 20:00:00,0.419
16/07/2024 20:15:00,0.419
16/07/2024 20:30:00,0.419
16/07/2024 20:45:00,0.419
16/07/2024 21:00:00,0.42
16/07/2024 21:15:00,0.421
16/07/2024 21:30:00,0.421
16/07/2024 21:45:00,0.421
16/07/2024 22:00:00,0.421
16/07/2024 22:15:00,0.421
16/07/2024 22:30:00,0.421
16/07/2024 22:45:00,0.421
16/07/2024 23:00:00,0.421
16/07/2024 23:15:00,0.422
16/07/2024 23:30:00,0.422
16/07/2024 23:45:00,0.422
17/07/2024 00:00:00,0.422
17/07/2024 00:15:00,0.423
17/07/2024 00:30:00,0.424
17/07/2024 00:45:00,0.424
17/07/2024 01:00:00,0.425
